Regional Weather Roundup
Issued by NWS Charleston, SC

Current Version | Previous Version | Graphics & Text | Print | Product List | Glossary On
Versions: 1 2 3 4 5 6 7 8 9 10 11 12 13 14 15 16 17 18 19 20 21 22 23 24 25 26 27 28 29 30 31 32 33 34 35 36 37 38 39 40 41 42 43 44 45 46 47 48 49 50
886 ASUS42 KCHS 210412 RWRCHS REGIONAL WEATHER ROUNDUP NATIONAL WEATHER SERVICE CHARLESTON SC 1100 PM EST MON FEB 20 2017 NOTE: "FAIR" INDICATES FEW OR NO CLOUDS BELOW 12,000 FEET WITH NO SIGNIFICANT WEATHER AND/OR OBSTRUCTIONS TO VISIBILITY. NOT ALL STATIONS ARE QUALITY CONTROLLED. USE DATA WITH CAUTION... ESPECIALLY DEWPOINT OBSERVATIONS. SCZ027-030-031-034>040-042>050-210500- ...SOUTHEAST SOUTH CAROLINA... CITY SKY/WX TMP DP RH WIND PRES REMARKS N CHARLESTON MOCLDY 57 53 86 E3 30.17F WATERFRONT PRK N/A 58 57 96 CALM 30.17S MOUNT PLEASANT LGT RAIN 54 52 94 CALM 30.18S JOHNS ISLAND FAIR 55 54 94 CALM 30.17F PINOPOLIS N/A 57 52 82 CALM 30.09S MONCKS CORNER FAIR 52 46 82 CALM 30.18S SUMMERVILLE FAIR 52 46 82 CALM 30.19S BEAUFORT MCAS PTCLDY 55 55 100 CALM 30.17S BEAUFORT ARPT FAIR 55 55 100 E3 30.17S HILTON HEAD IS CLOUDY 54 54 100 CALM 30.18S WALTERBORO PTCLDY 52 46 82 CALM 30.18S ALLENDALE FAIR 55 50 82 CALM 30.16F ...SOUTHERN MIDLANDS AND PEE DEE... CITY SKY/WX TMP DP RH WIND PRES REMARKS GEORGETOWN FAIR 50 50 100 CALM 30.19F KINGSTREE FAIR 52 46 82 CALM 30.19S ORANGEBURG PTCLDY 54 46 74 CALM 30.18S BARNWELL FAIR 54 50 87 CALM 30.17F AIKEN FAIR 50 43 76 CALM 30.20F MANNING FAIR 50 41 71 MISG 30.18S COLUMBIA PTCLDY 52 46 80 CALM 30.17S SUMTER PTCLDY 53 46 76 CALM 30.16S FLORENCE PTCLDY 55 48 77 E3 30.20R MYRTLE BEACH NOT AVBL N MYRTLE BEACH MOCLDY 55 51 86 E5 30.20R $$ GAZ063-065-086>088-099>101-113>116-118-119-134>141-150-210500- ...SOUTHEAST GEORGIA... CITY SKY/WX TMP DP RH WIND PRES REMARKS SAVANNAH ARPT CLOUDY 59 55 87 SE3 30.16S HUNTER AAF PTCLDY 56 56 100 SE3 30.14S FORT STEWART CLOUDY 55 49 81 CALM 30.13F STATESBORO CLOUDY 55 51 86 CALM 30.15F SYLVANIA CLOUDY N/A N/A N/A CALM 30.17S CLAXTON FAIR N/A N/A N/A CALM 30.15F ...CSRA...CENTRAL AND FAR SOUTHEAST GEORGIA... CITY SKY/WX TMP DP RH WIND PRES REMARKS THOMSON CLOUDY 53 51 92 CALM 30.20F AUGUSTA-BUSH MOCLDY 55 47 74 CALM 30.16F AUGUSTA-DANIEL CLOUDY 62 42 47 E6 30.16F SWAINSBORO FAIR 61 50 67 SE3 30.16S VIDALIA PTCLDY 61 54 77 SE3 30.15S EASTMAN FAIR 62 45 53 SE5 30.15F HAZLEHURST FAIR 64 51 63 SE7 30.13F ALMA CLOUDY 60 50 69 SE6 30.14S WAYCROSS CLOUDY 63 53 69 E6 30.14F JESUP FAIR 55 50 82 CALM 30.16S BAXLEY FAIR 63 52 67 SE5 30.14F BRUNSWICK CLOUDY 54 54 100 NE3 30.16F FOG SAINT SIMONS CLOUDY 60 57 89 E7 30.15F $$ SCZ027-028-034-036>038-045-046-048>050-GAZ119-141-210500- ...LAKE AND SUPPLEMENTAL COASTAL OBSERVATIONS... STATION/POSITION TIME TEMP WIND PRES WAVE SWELL AIR SEA DIR/SP/G HT/PER HT/PER/DIR (UTC) (F) (DEG/KT/KT) (MB) (FT/S) (FT/S/D) WINYAH BAY 0245 56 60/ 2 1022.0 LAKE MURRAY 0320 55 CALM / 1 1021.3 ACE BASIN NERRS NOT AVBL FORT PULASKI 0348 60 60 120/ 2/ 3 1021.7R SAPELO ISLAND 0300 58 80/ 2 1021.0 $$ ANZ835-935-AMZ111-154-330-350-352-354-370-450-454-472-210500- ...C-MAN AND BUOY OBSERVATIONS... STATION/POSITION TIME TEMP WIND PRES WAVE SWELL AIR SEA DIR/SP/G HT/PER HT/PER/DIR (UTC) (F) (DEG/KT/KT) (MB) (FT/S) (FT/S/D) BUOY 41004 0250 67 66 70/ 6/ 6 1021.6 2/ 4 2/ 50/ 4 BUOY 41008 0350 63 62 90/ 8/ 10 1021.0F FOLLY BEACH CMAN 0300 59 70/ 4/ 5 1022.4F CAPERS NEARSHORE NOT AVBL FRIPP NEARSHORE 0308 61 61 80/ 6/ 8 1021.4F STATION/POSITION TIME TEMP WIND PRES WAVE SWELL AIR SEA DIR/SP/G HT/PER HT/PER/DIR (UTC) (F) (DEG/KT/KT) (MB) (FT/S) (FT/S/D) 5E ST. MARYS GA 0330 64 N/A 1/ 6 FRYING PAN BUOY 0350 66 65 70/ 16/ 17 1022.3F 4/ 6 2/ 70/12 BUOY 41025 0350 60 75 50/ 19/ 25 1023.0F 5/ 8 2/ 30/15 CAPE LOOKOUT NC 0300 58 50/ 15/ 17 1023.1R BUOY 41002 0350 69 71 30/ 16/ 19 1020.1F 4/ 6 2/ 30/11 BUOY 41010 NOT AVBL ST AUGUSTINE FL 0400 67 68 70/ 9/ 10 1021.1F $$

USA.gov is the U.S. government's official web portal to all federal, state and local government web resources and services.